W4RJG Weather Reports


time (UTC)temp
C
wind
direction
speed
KPH
gust
KPH
rain 1hr
cm
rain 24hr
cm
rain mn
cm
humidity
%
barometer
mb
20260505064004 17 325 1.6 11.3 0.00 0.00 0.00 60 1003.0
20260505063013 17 254 4.8 4.8 0.00 0.00 0.00 59 1003.0
20260505062006 17 331 3.2 9.7 0.00 0.00 0.00 58 1003.0
20260505060009 17 279 4.8 9.7 0.00 0.00 0.00 57 1002.7
20260505055008 17 337 4.8 9.7 0.00 0.00 0.00 56 1002.7
20260505054008 17 312 4.8 9.7 0.00 0.00 0.00 55 1003.0
20260505052004 17 318 4.8 4.8 0.00 0.00 0.00 55 1003.0
20260505051004 17 283 0.0 8.0 0.00 0.00 0.00 54 1003.0
20260505041005 17 269 3.2 8.0 0.00 0.00 0.00 53 1002.7
20260505040005 17 317 3.2 8.0 0.00 0.00 0.00 55 1002.7
20260505035005 17 331 0.0 4.8 0.00 0.00 0.00 56 1002.7
20260505034004 17 244 0.0 4.8 0.00 0.00 0.00 57 1002.7
20260505033006 16 203 1.6 1.6 0.00 0.00 0.00 58 1002.7
20260505032005 17 247 1.6 3.2 0.00 0.00 0.00 58 1002.7
20260505031005 16 313 1.6 3.2 0.00 0.00 0.00 60 1002.7
20260505025004 16 244 3.2 3.2 0.00 0.00 0.00 62 1002.7
20260505024004 17 39 0.0 0.0 0.00 0.00 0.00 60 1002.7
20260505023004 17 291 0.0 4.8 0.00 0.00 0.00 58 1002.7
20260505022005 18 258 0.0 4.8 0.00 0.00 0.00 56 1002.7
20260505021005 18 226 3.2 4.8 0.00 0.00 0.00 57 1002.7
20260505020006 17 212 1.6 3.2 0.00 0.00 0.00 58 1002.7
20260505015008 17 177 0.0 0.0 0.00 0.00 0.00 61 1002.4
20260505012007 18 17 0.0 0.0 0.00 0.00 0.00 57 1002.0
20260505011008 19 358 0.0 0.0 0.00 0.00 0.00 55 1002.0
20260505010007 20 32 0.0 0.0 0.00 0.00 0.00 53 1002.0
20260505005005 20 358 0.0 0.0 0.00 0.00 0.00 50 1002.0
20260505004005 21 322 0.0 0.0 0.00 0.00 0.00 48 1001.7
20260505002004 22 189 0.0 1.6 0.00 0.00 0.00 46 1001.7
20260504235005 23 328 1.6 4.8 0.00 0.00 0.00 44 1001.4
20260504234011 23 306 1.6 4.8 0.00 0.00 0.00 43 1001.4
20260504232005 24 339 4.8 11.3 0.00 0.00 0.00 42 1001.4
20260504231015 25 326 4.8 11.3 0.00 0.00 0.00 40 1001.4
20260504224005 25 26 8.0 11.3 0.00 0.00 0.00 39 1001.4
20260504223004 25 317 3.2 11.3 0.00 0.00 0.00 40 1001.4
20260504222004 25 351 11.3 12.9 0.00 0.00 0.00 39 1001.7
20260504221008 25 6 4.8 9.7 0.00 0.00 0.00 38 1001.4
20260504220004 26 6 4.8 14.5 0.00 0.00 0.00 38 1001.7
20260504215004 26 331 8.0 19.3 0.00 0.00 0.00 36 1001.7
20260504214011 26 301 9.7 19.3 0.00 0.00 0.00 37 1001.7
20260504213005 26 303 9.7 19.3 0.00 0.00 0.00 36 1001.7
20260504212004 26 276 3.2 11.3 0.00 0.00 0.00 38 1001.4
20260504211004 26 321 1.6 12.9 0.00 0.00 0.00 37 1001.4
20260504210005 26 3 8.0 12.9 0.00 0.00 0.00 35 1001.4
20260504205009 26 332 8.0 12.9 0.00 0.00 0.00 35 1001.6
20260504204006 26 44 9.7 12.9 0.00 0.00 0.00 35 1001.4
20260504203004 26 279 4.8 11.3 0.00 0.00 0.00 36 1001.7
20260504202007 26 336 4.8 9.7 0.00 0.00 0.00 36 1001.7
20260504201007 26 346 4.8 14.5 0.00 0.00 0.00 34 1002.0
20260504200005 26 3 4.8 19.3 0.00 0.00 0.00 35 1002.0
20260504195004 26 30 8.0 19.3 0.00 0.00 0.00 35 1002.4
20260504192008 26 344 4.8 19.3 0.00 0.00 0.00 33 1002.7
20260504191005 26 318 1.6 19.3 0.00 0.00 0.00 34 1003.0
20260504190007 25 314 4.8 20.9 0.00 0.00 0.00 34 1003.0
20260504185005 26 272 8.0 20.9 0.00 0.00 0.00 32 1003.0
20260504184007 26 341 6.4 19.3 0.00 0.00 0.00 33 1003.0
20260504183010 26 358 6.4 16.1 0.00 0.00 0.00 32 1003.0
20260504182023 26 356 16.1 16.1 0.00 0.00 0.00 32 1003.0
20260504181005 25 226 4.8 19.3 0.00 0.00 0.00 32 1003.4
20260504180005 25 10 6.4 19.3 0.00 0.00 0.00 31 1003.4
20260504175007 25 334 9.7 14.5 0.00 0.00 0.00 32 1003.4
20260504174007 25 340 12.9 19.3 0.00 0.00 0.00 33 1003.4
20260504173005 24 241 4.8 19.3 0.00 0.00 0.00 35 1003.7
20260504172005 25 280 4.8 20.9 0.00 0.00 0.00 32 1004.1
20260504171005 24 299 12.9 20.9 0.00 0.00 0.00 33 1004.1
20260504141004 19 190 1.6 4.8 0.00 0.00 0.00 53 1005.8
20260504082005 3 338 0.0 0.0 0.00 0.00 0.00 94 1006.1
20260504081005 3 307 0.0 0.0 0.00 0.00 0.00 93 1006.1